RH
15 16 15 18 17 17 21 19 19 16 12 16 16 16 17 17 17 19 20 22 27 29 30 27 29 37 55 62 63 63 58 58 55 51 49 47 49 48 45 40 39 42 47 52
16 17 15 17 17 17 19 21 21 18 15 14 16 18 21 21 20 21 21 24 31 37 38 34 40 50 68 58 57 58 62 61 63 62 59 56 55 51 51 55 49 42 42 46
13 13 14 13 13 14 14 17 18 22 24 18 22 25 27 26 27 28 29 32 36 40 42 47 58 70 60 56 60 64 66 60 54 51 49 49 52 47 48 48 48 47 46 50
12 13 14 12 10 12 14 16 17 20 22 23 29 32 32 30 30 32 35 38 42 39 45 45 53 54 56 57 58 61 57 55 50 48 51 51 49 44 42 41 42 45 47 46
22 17 17 17 14 11 14 14 19 22 24 27 28 31 31 29 30 30 38 40 40 37 34 39 43 53 67 73 77 71 63 55 53 51 52 51 49 47 46 46 43 45 48 51
28 28 22 20 16 10 12 16 24 24 23 25 27 27 24 28 32 36 38 45 44 48 54 56 67 78 76 69 66 56 53 55 54 56 55 50 49 48 47 48 48 50 51 55
21 24 28 26 21 16 12 13 20 22 24 24 22 22 26 34 46 57 62 56 57 68 69 69 66 61 67 65 55 62 66 61 55 50 50 52 54 55 54 53 52 52 52 51
26 25 29 28 25 18 16 22 24 27 23 22 25 31 34 38 46 53 52 54 58 53 58 61 64 76 81 67 72 69 58 54 54 57 59 56 58 60 61 58 52 46 39 34
36 35 34 31 24 19 19 22 25 24 22 26 38 48 42 44 58 45 52 48 46 53 59 59 65 74 71 69 58 49 52 52 50 51 54 63 66 63 60 54 46 41 38 36
38 35 33 30 26 25 25 28 28 27 31 31 32 47 49 48 39 49 42 43 52 61 66 67 68 74 74 61 44 44 50 50 57 63 65 62 62 54 46 42 41 41 42 40
47 45 37 38 38 38 38 36 32 32 36 36 34 32 55 45 45 48 57 65 69 72 74 65 60 70 60 50 46 41 45 62 58 60 64 62 46 32 27 40 46 54 40 17
48 48 46 44 45 45 40 38 37 35 36 39 43 38 60 52 50 57 60 60 64 63 62 62 49 48 55 46 46 46 54 54 57 60 58 46 29 31 35 37 29 21 15 21
47 45 44 42 40 44 44 47 52 45 47 50 49 56 55 58 57 52 50 53 50 44 35 35 36 38 39 50 72 94 100 69 76 65 54 35 32 40 16 28 24 9 17 14
43 43 42 44 48 59 65 65 63 53 47 47 50 41 52 44 38 35 35 35 35 35 37 44 49 47 44 56 90 100 66 60 51 40 33 32 46 34 54 80 57 7 14 34
40 45 52 56 64 62 56 55 55 53 56 46 50 47 44 39 36 40 43 43 44 51 54 62 58 51 48 53 66 58 42 30 25 23 35 54 83 34 35 44 12 10 54 90
70 58 52 49 49 48 51 64 65 62 64 57 52 50 49 48 49 53 59 62 61 61 66 64 59 62 69 59 67 62 33 20 33 27 27 29 29 31 50 32 24 100 100 100
75 76 70 63 57 60 68 69 63 59 69 63 53 54 55 60 70 76 79 78 76 80 72 75 78 69 42 28 28 52 57 66 34 28 56 80 82 19 8 53 100 100 100 100
71 71 70 65 61 60 77 62 58 55 62 65 58 66 71 72 73 79 74 67 75 74 73 68 39 25 54 89 100 100 90 98 87 57 53 80 88 13 42 99 100 100 100 100
80 77 68 62 63 54 70 74 63 53 47 68 60 65 68 75 73 74 73 66 60 56 42 30 39 71 93 100 100 92 68 74 73 62 66 48 41 36 93 100 100 100 100 99
90 85 78 73 70 53 80 82 68 60 45 55 58 63 76 85 64 57 51 56 42 39 31 18 88 95 100 100 100 87 46 48 52 40 29 34 90 100 100 100 100 100 100 100
94 89 85 86 75 63 88 70 68 66 66 56 71 82 90 78 69 56 43 43 47 36 38 42 61 95 77 97 100 92 22 16 23 17 36 87 98 96 99 100 100 99 87 64
96 87 88 75 79 82 84 75 76 74 59 65 77 70 66 57 42 31 26 25 33 74 100 100 78 41 55 88 100 59 6 6 14 54 95 90 95 100 100 99 79 43 22 18
81 98 81 87 90 100 100 84 78 73 57 68 62 58 56 52 38 27 32 64 69 100 100 71 90 59 71 97 77 14 5 18 78 92 87 99 100 100 79 32 20 22 21 19
87 99 72 98 100 100 98 88 81 77 66 68 67 56 53 50 32 29 81 100 96 52 67 85 79 78 99 95 34 11 39 98 93 94 99 100 87 31 19 23 21 15 13 14
100 92 100 87 92 76 83 85 67 62 63 49 50 46 41 32 29 44 88 100 100 93 92 100 100 96 79 45 18 65 95 94 95 98 96 43 23 25 20 15 14 16 21 25
100 96 98 75 74 69 59 52 98 59 58 56 49 37 31 24 16 19 19 29 74 100 99 82 78 55 25 23 78 87 95 94 98 72 27 27 21 16 16 19 26 31 37 35
Wind_Speed
4 4 3 4 6 5 5 7 9 11 8 10 10 10 12 13 16 17 18 20 21 22 24 26 25 25 27 31 32 34 36 39 43 45 47 48 50 51 53 55 56 56 58 60
4 5 5 5 7 8 7 8 9 13 14 10 12 15 14 16 17 21 23 23 21 23 24 25 27 29 30 31 31 32 34 39 44 46 48 49 51 52 53 55 59 62 64 64
7 8 8 9 9 11 9 10 11 10 15 12 11 14 17 19 19 21 22 25 28 27 28 30 29 26 29 30 33 36 40 44 48 49 52 52 52 55 55 56 58 60 62 62
10 10 12 12 11 11 13 14 13 12 12 12 13 15 20 20 21 23 26 27 28 28 26 28 26 30 32 33 38 41 44 49 51 51 52 54 56 57 57 59 60 60 60 61
12 14 15 17 17 13 14 16 15 13 14 15 15 20 24 24 26 27 27 29 30 27 29 30 30 34 36 41 43 47 52 54 53 54 56 59 60 59 57 57 57 58 59 59
15 17 18 21 22 18 16 16 14 14 16 19 20 23 26 28 30 30 32 34 33 32 32 34 40 39 41 47 49 52 54 57 59 59 60 59 58 58 59 61 62 62 63 64
18 18 20 23 24 23 21 16 16 18 18 21 24 27 29 31 33 31 33 35 37 39 38 42 41 46 48 52 55 56 58 58 57 57 56 56 57 59 61 63 65 67 69 69
20 19 20 21 20 21 18 15 17 21 23 23 27 29 27 32 38 38 40 40 41 44 45 47 48 49 51 54 55 57 56 57 57 58 59 61 63 64 67 70 71 71 72 74
15 14 15 16 17 18 18 19 22 26 29 29 25 19 24 34 38 43 43 47 49 48 48 49 49 48 53 53 53 55 54 53 57 60 63 64 66 69 71 72 74 76 79 81
10 12 13 13 15 18 20 25 28 30 33 34 31 23 26 32 41 40 46 49 46 45 45 46 48 50 52 52 57 55 57 60 63 65 67 69 70 71 74 77 81 83 84 83
11 14 17 17 18 21 23 27 31 33 34 36 41 33 34 39 43 43 41 39 40 42 45 47 48 49 51 57 59 59 61 64 67 69 69 71 76 80 78 78 78 77 79 79
15 18 20 22 22 21 25 28 32 36 36 35 41 41 37 43 42 37 38 41 43 46 45 43 48 53 57 59 60 61 63 66 68 70 74 80 80 82 81 82 81 80 76 72
20 21 23 25 25 22 23 28 34 38 40 40 42 38 38 39 41 42 44 45 45 45 50 52 55 59 58 62 65 67 73 74 75 78 82 83 83 82 83 80 81 74 70 65
23 23 24 26 29 25 22 27 35 39 40 43 34 39 37 41 42 42 41 44 50 52 54 56 57 59 59 58 64 70 74 77 80 83 84 85 86 87 86 88 88 76 64 53
25 24 25 27 30 33 28 31 32 35 33 38 34 35 39 42 41 43 46 52 55 54 56 56 59 60 60 60 65 73 77 78 81 84 86 87 93 89 86 86 81 64 51 46
29 31 33 28 37 40 31 30 37 35 32 38 41 44 45 43 45 46 48 50 53 57 57 59 60 60 64 69 73 77 82 84 86 86 87 88 86 87 87 84 60 47 45 43
33 39 43 39 36 38 26 31 36 37 37 41 45 44 43 41 44 47 47 52 52 54 59 59 63 69 73 73 75 81 86 89 88 87 84 83 88 88 67 51 46 45 46 48
40 42 44 44 41 40 22 35 41 43 44 43 47 44 44 47 49 49 55 58 57 60 62 65 69 72 73 73 74 84 88 89 92 90 83 88 85 75 52 46 44 44 46 46
38 39 43 42 44 45 30 38 42 45 48 46 51 52 55 54 58 55 59 59 60 63 66 72 73 73 70 73 80 89 91 90 91 88 88 85 73 57 48 47 46 45 44 44
37 39 40 39 45 47 38 46 49 53 54 55 58 58 58 61 66 66 68 69 72 72 73 75 63 73 79 85 89 88 90 91 90 86 79 60 51 50 48 46 45 44 46 49
36 40 39 40 45 46 44 50 51 53 57 58 59 59 59 62 65 68 70 72 72 75 77 80 78 80 86 94 96 92 93 87 82 74 56 52 51 50 47 46 47 50 52 53
36 38 36 42 43 43 46 53 55 58 60 60 59 60 61 64 68 70 72 75 75 73 69 77 90 87 88 89 88 95 88 77 65 55 51 51 49 49 49 52 54 55 55 56
38 36 39 43 44 44 48 56 58 60 61 59 62 64 67 69 72 78 75 74 71 71 79 90 90 91 85 85 93 92 71 59 54 51 52 50 50 53 54 55 57 58 58 57
41 34 42 46 42 47 54 54 58 61 62 63 67 68 70 73 77 75 69 71 83 88 86 88 86 85 88 88 90 64 56 50 51 51 49 51 53 56 58 60 59 56 54 51
42 44 45 53 55 57 55 56 60 64 67 67 69 73 75 76 75 73 71 74 81 89 85 82 84 90 93 87 61 52 49 51 51 49 51 54 57 59 57 54 51 48 45 42
44 49 55 60 59 61 63 65 56 66 69 73 74 77 77 78 78 76 77 79 79 79 80 89 91 88 74 53 46 46 51 48 48 50 54 57 56 52 49 46 44 43 41 40
Wind_Direction
18 0 335 318 312 334 359 347 330 323 322 324 324 340 332 323 304 298 299 303 309 308 306 302 304 307 307 310 308 307 309 306 302 299 299 303 303 303 302 300 299 299 298 297
283 307 326 319 329 326 344 332 334 323 309 310 319 317 313 299 297 297 294 294 302 303 297 300 299 301 302 306 310 307 305 303 301 300 300 298 297 297 296 297 299 299 298 297
268 296 301 313 325 325 318 309 313 307 303 321 312 300 291 292 300 299 295 304 305 308 307 307 304 301 299 309 310 304 301 299 298 297 296 296 296 294 294 295 297 297 296 296
279 292 296 300 299 302 303 296 297 298 295 307 304 299 294 307 307 301 302 303 304 310 306 301 291 294 299 300 303 298 295 296 299 301 303 304 300 297 298 297 297 298 299 297
282 281 290 292 289 291 296 291 288 296 304 304 297 297 297 307 306 307 305 304 306 305 300 297 298 305 305 305 303 300 303 308 309 308 307 304 305 307 305 303 302 302 301 297
285 276 277 283 291 296 297 282 278 287 300 304 308 305 309 308 305 301 300 302 302 303 304 313 318 313 302 302 302 306 311 312 312 311 307 307 308 307 308 308 306 305 302 300
282 279 274 277 290 295 293 283 289 299 301 305 306 306 307 302 299 297 302 303 307 313 317 314 309 307 306 307 313 315 312 309 308 307 307 307 308 307 306 305 305 303 302 301
280 277 275 275 282 289 291 286 289 297 301 301 300 302 304 298 297 304 306 308 313 315 313 312 311 311 308 311 312 307 309 310 310 311 310 308 307 307 306 305 303 303 302 301
278 274 273 276 284 292 297 296 295 295 294 295 297 297 300 294 300 303 309 310 315 316 311 311 311 306 306 306 306 307 304 305 307 309 309 306 306 305 304 302 301 300 299 298
292 292 294 293 296 297 298 298 298 297 299 300 300 307 302 295 297 304 306 310 310 308 307 307 304 301 300 302 306 309 309 310 309 307 305 304 303 303 302 300 298 297 297 296
293 293 291 292 297 301 301 299 298 298 300 306 306 315 307 305 306 309 309 307 304 305 303 301 302 301 303 307 311 312 308 304 305 304 303 303 303 302 301 300 299 299 299 299
299 298 298 299 300 302 301 302 299 299 304 310 308 317 309 308 311 314 307 306 305 302 304 308 309 308 305 305 307 306 307 306 304 302 303 304 304 305 304 304 303 303 305 305
295 295 299 301 303 307 307 308 307 308 312 313 309 312 310 309 310 310 309 309 310 310 308 308 308 307 303 298 299 301 307 306 304 304 304 305 306 307 306 310 314 310 307 304
300 301 302 301 302 303 308 305 301 304 308 303 313 307 310 306 306 306 307 311 308 308 306 305 304 304 304 303 300 298 303 303 304 303 303 305 309 308 306 309 314 314 308 300
300 297 292 294 299 300 309 302 295 295 297 300 304 305 302 306 308 310 309 307 305 306 305 305 303 304 305 305 304 304 305 304 303 303 306 309 309 308 309 314 315 312 306 301
303 299 293 294 296 299 308 300 300 305 304 302 302 306 306 307 307 305 307 305 305 306 304 303 304 305 306 305 302 303 305 308 311 312 311 310 314 315 313 315 316 308 297 286
302 298 297 301 298 300 306 299 296 298 298 299 303 305 305 307 306 307 306 302 302 301 305 306 304 305 304 304 308 309 310 309 312 312 312 314 316 319 317 312 307 300 296 294
295 297 296 296 297 297 313 301 303 304 304 306 305 309 314 312 308 310 307 310 309 307 306 306 305 307 308 309 305 307 310 311 314 315 314 317 316 316 313 310 306 300 296 295
292 292 294 296 297 300 316 302 301 304 308 314 312 314 316 312 311 314 309 310 309 308 310 311 312 308 302 295 297 308 313 312 312 312 314 317 316 312 312 309 305 302 300 300
291 292 294 296 296 299 315 307 312 310 312 312 314 315 315 314 312 313 314 313 313 312 311 313 305 298 296 298 306 313 313 313 315 316 317 311 314 313 313 310 308 305 303 302
288 289 293 294 295 300 310 306 307 309 310 312 313 313 313 311 311 312 311 310 309 308 309 310 308 299 300 301 306 312 316 314 316 315 312 312 315 315 313 310 308 306 305 305
290 295 300 297 299 307 308 308 310 310 310 311 311 312 310 309 309 309 309 310 309 305 300 299 306 308 310 309 308 313 316 315 314 312 313 315 315 313 312 310 310 309 308 306
292 301 302 302 302 309 306 306 307 306 309 309 310 310 307 305 307 307 308 307 306 295 295 303 307 309 309 310 314 316 316 314 314 315 316 316 315 313 313 314 313 312 309 306
299 308 303 302 304 300 300 303 304 306 307 306 305 304 305 307 307 308 303 297 302 305 302 302 309 313 309 311 316 315 312 314 317 317 317 316 315 317 317 316 314 312 309 308
301 304 304 298 299 299 302 303 302 302 305 303 303 305 307 307 307 306 299 295 296 298 301 301 310 312 311 314 314 312 315 317 317 318 318 318 319 319 318 317 316 316 316 318
303 300 297 297 299 300 301 303 300 302 300 303 306 305 304 306 306 304 303 304 303 301 306 311 313 312 315 315 311 315 317 318 319 319 320 320 320 321 322 322 321 321 322 321